Location: Earls Croome
(52.0667°N, 2.2000°W)
Time: 21:25:34
(UTC+00:00)

SL-16 R/B - Pass Details

Date: 17 November 2019
Orbit: 839 x 850 km, 71.0° (Epoch: 08 December)

Event Time Altitude Azimuth Distance (km) Brightness Sun altitude
Exits shadow 06:04:37 - 334° (NNW) 2,998 4.7 -13.2°
Reaches altitude 10° 06:06:26 10° 345° (NNW) 2,489 4.4 -12.9°
Maximum altitude 06:10:29 19° 30° (NNE) 1,906 4.2 -12.3°
Drops below altitude 10° 06:14:32 10° 76° (ENE) 2,484 5.6 -11.7°
Sets 06:17:43 0° 94° (E) 3,416 7.2 -11.2°
